• In Hungary
  • List of Countries
  • For 7 days
  • Water Temperature
  • Satellite Maps
  • Weather Map
  • News
  • Weather Widgets
  • user-avatar
    Login

    Hourly Weather Przysow

    Today, 16 January, Tuesday

    Time Temperature Precipitation Wind Pressure Humidity
    00:00 -8°C° 0 mm 4 mps 737 mmHg 56%
    01:00 -8°C° 0 mm 3 mps 736 mmHg 58%
    02:00 -9°C° 0 mm 4 mps 735 mmHg 59%
    03:00 -8°C° 0 mm 4 mps 734 mmHg 60%
    04:00 -8°C° 0 mm 5 mps 733 mmHg 61%
    05:00 -8°C° 0 mm 5 mps 732 mmHg 62%
    06:00 -8°C° 0 mm 4 mps 732 mmHg 63%
    07:00 -8°C° 0 mm 4 mps 731 mmHg 63%
    08:00 -7°C° 0 mm 4 mps 730 mmHg 62%
    09:00 -7°C° 0 mm 5 mps 729 mmHg 61%
    10:00 -6°C° 0 mm 5 mps 729 mmHg 59%
    11:00 -5°C° 0.1 mm 5 mps 728 mmHg 60%
    12:00 -4°C° 0.1 mm 5 mps 727 mmHg 61%
    13:00 -4°C° 0.1 mm 5 mps 726 mmHg 61%
    14:00 -4°C° 0 mm 5 mps 725 mmHg 63%
    15:00 -3°C° 0 mm 4 mps 725 mmHg 65%
    16:00 -3°C° 0 mm 4 mps 724 mmHg 67%
    17:00 -3°C° 0.1 mm 4 mps 723 mmHg 72%
    18:00 -3°C° 0.1 mm 4 mps 722 mmHg 77%
    19:00 -3°C° 0.1 mm 4 mps 722 mmHg 83%
    20:00 -4°C° 0.7 mm 5 mps 721 mmHg 84%
    21:00 -2°C° 0.7 mm 5 mps 721 mmHg 85%
    22:00 -2°C° 0.7 mm 5 mps 720 mmHg 87%
    23:00 -2°C° 0.4 mm 6 mps 720 mmHg 84%

    Tomorrow, 17 January, Wednesday

    Time Temperature Precipitation Wind Pressure Humidity
    00:00 -2°C° 0.4 mm 7 mps 720 mmHg 82%
    01:00 -1°C° 0.4 mm 8 mps 720 mmHg 80%
    02:00 -2°C° 0 mm 7 mps 719 mmHg 81%
    03:00 -2°C° 0 mm 7 mps 719 mmHg 81%
    04:00 -3°C° 0 mm 6 mps 719 mmHg 82%
    05:00 -2°C° 0 mm 5 mps 719 mmHg 84%
    06:00 -2°C° 0 mm 5 mps 719 mmHg 85%
    07:00 -3°C° 0 mm 4 mps 719 mmHg 87%
    08:00 -2°C° 0 mm 4 mps 719 mmHg 86%
    09:00 -1°C° 0 mm 3 mps 719 mmHg 85%
    10:00 0°C° 0 mm 3 mps 719 mmHg 85%
    11:00 0°C° 0 mm 3 mps 720 mmHg 84%
    12:00 0°C° 0 mm 3 mps 720 mmHg 83%
    13:00 +1°C° 0 mm 3 mps 720 mmHg 82%
    14:00 0°C° 0.3 mm 3 mps 720 mmHg 83%
    15:00 -1°C° 0.3 mm 4 mps 721 mmHg 85%
    16:00 -1°C° 0.3 mm 4 mps 721 mmHg 87%
    17:00 -2°C° 0.2 mm 4 mps 722 mmHg 85%
    18:00 -2°C° 0.2 mm 5 mps 722 mmHg 83%
    19:00 -4°C° 0.2 mm 5 mps 722 mmHg 82%
    20:00 -4°C° 0.1 mm 5 mps 723 mmHg 83%
    21:00 -4°C° 0.1 mm 6 mps 723 mmHg 85%
    22:00 -4°C° 0.1 mm 6 mps 724 mmHg 86%
    23:00 -4°C° 0.1 mm 6 mps 724 mmHg 85%

    Day after tomorrow, 18 January, Thursday

    Time Temperature Precipitation Wind Pressure Humidity
    00:00 -4°C° 0.1 mm 6 mps 725 mmHg 83%
    01:00 -4°C° 0.1 mm 5 mps 725 mmHg 82%
    02:00 -4°C° 0 mm 5 mps 726 mmHg 84%
    03:00 -5°C° 0 mm 5 mps 726 mmHg 85%
    04:00 -5°C° 0 mm 5 mps 726 mmHg 87%
    05:00 -5°C° 0.1 mm 5 mps 726 mmHg 87%
    06:00 -4°C° 0.1 mm 5 mps 727 mmHg 88%
    07:00 -4°C° 0.1 mm 5 mps 727 mmHg 89%
    08:00 -2°C° 0.1 mm 5 mps 727 mmHg 86%
    09:00 -2°C° 0.1 mm 5 mps 727 mmHg 84%
    10:00 -2°C° 0.1 mm 6 mps 727 mmHg 81%
    11:00 -1°C° 0.1 mm 5 mps 727 mmHg 81%
    12:00 -1°C° 0.1 mm 5 mps 726 mmHg 80%
    13:00 -1°C° 0.1 mm 5 mps 726 mmHg 80%
    14:00 -1°C° 0.3 mm 5 mps 725 mmHg 82%
    15:00 -2°C° 0.3 mm 5 mps 724 mmHg 84%
    16:00 -2°C° 0.3 mm 5 mps 723 mmHg 86%
    17:00 -2°C° 1.3 mm 5 mps 721 mmHg 87%
    18:00 -2°C° 1.3 mm 6 mps 720 mmHg 88%
    19:00 -2°C° 1.3 mm 7 mps 719 mmHg 89%
    20:00 -1°C° 0.7 mm 7 mps 718 mmHg 86%
    21:00 -1°C° 0.7 mm 7 mps 718 mmHg 84%
    22:00 0°C° 0.7 mm 7 mps 717 mmHg 81%
    23:00 -1°C° 0.2 mm 8 mps 717 mmHg 80%

    19 January, Friday

    Time Temperature Precipitation Wind Pressure Humidity
    00:00 -1°C° 0.2 mm 9 mps 718 mmHg 78%
    01:00 -3°C° 0.2 mm 10 mps 718 mmHg 77%
    02:00 -3°C° 0.1 mm 10 mps 719 mmHg 79%
    03:00 -3°C° 0.1 mm 9 mps 719 mmHg 81%
    04:00 -3°C° 0.1 mm 9 mps 720 mmHg 82%
    05:00 -4°C° 0.1 mm 9 mps 721 mmHg 83%
    06:00 -4°C° 0.1 mm 8 mps 722 mmHg 84%
    07:00 -4°C° 0.1 mm 8 mps 724 mmHg 85%
    08:00 -3°C° 0.1 mm 7 mps 725 mmHg 85%
    09:00 -3°C° 0.1 mm 6 mps 726 mmHg 84%
    10:00 -3°C° 0.1 mm 6 mps 727 mmHg 84%
    11:00 -2°C° 0 mm 5 mps 727 mmHg 83%
    12:00 -2°C° 0 mm 5 mps 728 mmHg 82%
    13:00 -2°C° 0 mm 4 mps 728 mmHg 82%
    14:00 -1°C° 0 mm 3 mps 729 mmHg 83%
    15:00 -2°C° 0 mm 2 mps 729 mmHg 85%
    16:00 0°C° 0 mm 1 mps 729 mmHg 87%
    17:00 -1°C° 0 mm 1 mps 729 mmHg 88%
    18:00 -1°C° 0 mm 1 mps 730 mmHg 89%
    19:00 -2°C° 0 mm 1 mps 730 mmHg 90%
    20:00 -2°C° 0 mm 1 mps 730 mmHg 90%
    21:00 -2°C° 0 mm 1 mps 731 mmHg 90%
    22:00 -2°C° 0 mm 1 mps 731 mmHg 91%
    23:00 -2°C° 0 mm 1 mps 731 mmHg 91%

    20 January, Saturday

    Time Temperature Precipitation Wind Pressure Humidity
    00:00 -2°C° 0 mm 1 mps 731 mmHg 90%
    01:00 -2°C° 0 mm 1 mps 731 mmHg 90%
    02:00 -2°C° 0 mm 1 mps 730 mmHg 91%
    03:00 -2°C° 0 mm 1 mps 730 mmHg 91%
    04:00 -2°C° 0 mm 1 mps 730 mmHg 91%
    05:00 -2°C° 0 mm 1 mps 730 mmHg 91%
    06:00 -2°C° 0 mm 1 mps 730 mmHg 91%
    07:00 -2°C° 0 mm 1 mps 730 mmHg 91%
    08:00 -3°C° 0 mm 2 mps 730 mmHg 90%
    09:00 -3°C° 0 mm 2 mps 731 mmHg 89%
    10:00 -3°C° 0 mm 2 mps 731 mmHg 88%
    11:00 -2°C° 0 mm 2 mps 731 mmHg 88%
    12:00 -2°C° 0 mm 2 mps 730 mmHg 88%
    13:00 -1°C° 0 mm 2 mps 730 mmHg 87%
    14:00 -2°C° 0 mm 2 mps 730 mmHg 89%
    15:00 -2°C° 0 mm 2 mps 730 mmHg 90%
    16:00 -3°C° 0 mm 2 mps 731 mmHg 91%
    17:00 -3°C° 0 mm 2 mps 731 mmHg 92%
    18:00 -1°C° 0 mm 1 mps 731 mmHg 92%
    19:00 -1°C° 0 mm 1 mps 732 mmHg 92%
    20:00 -2°C° 0 mm 1 mps 732 mmHg 92%
    21:00 -2°C° 0 mm 1 mps 732 mmHg 92%
    22:00 -2°C° 0 mm 1 mps 733 mmHg 92%
    23:00 -2°C° 0 mm 1 mps 733 mmHg 92%

    21 January, Sunday

    Time Temperature Precipitation Wind Pressure Humidity
    00:00 -3°C° 0 mm 1 mps 733 mmHg 92%
    01:00 -3°C° 0 mm 1 mps 733 mmHg 92%
    02:00 -3°C° 0 mm 1 mps 733 mmHg 92%
    03:00 -3°C° 0 mm 1 mps 734 mmHg 92%
    04:00 -3°C° 0 mm 1 mps 734 mmHg 92%
    05:00 -3°C° 0 mm 1 mps 734 mmHg 92%
    06:00 -4°C° 0 mm 1 mps 734 mmHg 92%
    07:00 -6°C° 0 mm 2 mps 735 mmHg 92%
    08:00 -5°C° 0 mm 2 mps 735 mmHg 91%
    09:00 -4°C° 0 mm 2 mps 735 mmHg 89%
    10:00 -5°C° 0 mm 3 mps 735 mmHg 88%
    11:00 -4°C° 0 mm 3 mps 735 mmHg 87%
    12:00 -4°C° 0 mm 3 mps 735 mmHg 85%
    13:00 -2°C° 0 mm 3 mps 735 mmHg 84%
    14:00 -4°C° 0 mm 3 mps 735 mmHg 86%
    15:00 -4°C° 0 mm 3 mps 736 mmHg 88%
    16:00 -5°C° 0 mm 3 mps 736 mmHg 90%
    17:00 -5°C° 0 mm 3 mps 736 mmHg 90%
    18:00 -6°C° 0 mm 3 mps 736 mmHg 91%
    19:00 -6°C° 0 mm 3 mps 737 mmHg 92%
    20:00 -7°C° 0 mm 4 mps 737 mmHg 92%
    21:00 -8°C° 0 mm 4 mps 737 mmHg 91%
    22:00 -8°C° 0 mm 4 mps 737 mmHg 91%
    23:00 -8°C° 0 mm 4 mps 738 mmHg 90%
    Show more